TRANSIT 11 DEB, 11991

Orbit data source: Space-Track

TRANSIT 11 DEB, 11991 is space debris in LEO originally from a launch on Fri, 28 Jan 1966 UTC launched from the Air Force Western Test Range (AFWTR). Debris objects in space refer to the collection of defunct objects orbiting the Earth. Examples of debris include non-operational satellites, rocket bodies, and fragments generated from explosions, collisions, or faulty payload assembly.

Loading next visibility...
TRANSIT 11 DEB details
Identifier
11991, 1966-005H
Orbit
LEO
Last TLE update15 hours ago
Origin
Flag of USUSN NAVAIR (US)
ManufacturerUnknown
MissionSpacecraft
Bus & MotorUnknown
MassUnknown
Launch date (UTC)
1966-01-28 (59 years ago)
Launch vehicleUnknown
Launch site
Air Force Western Test Range (AFWTR)
Object type
Payload
Rocket body
Debris
Shape & HBRUnknown
Radar Cross SectionMedium (>0.1 m² and <1 m²)

Expand to show TLE details & history

TLE from 15 hours ago
0 TRANSIT 11 DEB
1 11991U 66005H   24355.93091001  .00001127  00000-0  89779-3 0  9994
2 11991  90.1754 332.7387 0175298 206.2437 182.3338 13.83736055946231
Epoch: 2024-12-20T22:20Z
Definitive object data (Epoch: 2024-12-20T22:20:30.624Z)
Latitude28.538°
Longitude-92.47315°
Altitude1,082.68 km
Speed7.249 km/s
True Right ascension22h 10m 34s
True Declination28° 24' 01"
Sunlit
Object was in daylight at TLE epoch
Visualization TLE readout
Latitude-84.39389°
Longitude-90.58863°
Altitude936.169 km
Speed7.405 km/s
Apparent Right ascension00h 10m 36s
Apparent Declination-64° 01' 33"
Sunlit
Object is in daylight
Visualization observer readout
Local Sidereal Time12:26:25
Azimuth175.779° S
Elevation-65.778°
Doppler factor1
Orbital elements
Apogee altitude1,076.085 km
Perigee altitude819.245 km
Semi-major axis7,325.802 km
Eccentricity0.0175298
Inclination90.1754°
RAAN332.7387°
Arg. of periapsis206.2437°
True anomaly182.25375°
Mean anomaly182.3338°
Eccentric anomaly182.2936°
Mean motion3.46147 °/min
BSTAR0.00089779
Orbital period104 mins
Loading maneuver chart data...
Loading historical data...
Loading historical data...
Loading historical data...
Loading historical data...
Loading historical data...
Loading historical data...
Loading historical data...

TRANSIT 11 DEB Visibility forecast

Observer location: undefined°, undefined

Span
Click to sort rows by Start time (UTC) header in descending order
Start Az.
Max El. time (UTC)
Max El. Az.
Max El.
End time (UTC)
End Az.
12 mins2024-12-21 22:35:28.100Z159.671° S2024-12-21 22:41:28.100Z99.949° ESE40.289°2024-12-21 22:47:28.100Z7.38° NNE
8 mins2024-12-22 00:22:28.100Z239.292° WSW2024-12-22 00:26:28.100Z283.503° WNW21.04°2024-12-22 00:30:28.100Z324.502° NNW
4 mins2024-12-22 09:33:28.100Z55.375° ENE2024-12-22 09:35:28.100Z77.908° E14.194°2024-12-22 09:37:28.100Z100.654° ESE
9 mins2024-12-22 11:15:28.100Z355.431° N2024-12-22 11:19:28.100Z307.649° NW42.343°2024-12-22 11:24:28.100Z195.369° SSW
|